Regional Weather Roundup
Issued by NWS Albany, NY

Home | Current Version | Previous Version | Text Only | Print | Product List | Glossary On
Versions: 1 2 3 4 5 6 7 8 9 10 11 12 13 14 15 16 17 18 19 20 21 22 23 24 25 26 27 28 29 30 31 32 33 34 35 36 37 38 39 40 41 42 43 44 45 46 47 48 49 50
000
ASUS41 KALY 112210
RWRALY

NEW YORK STATE HOURLY WEATHER ROUNDUP
NATIONAL WEATHER SERVICE ALBANY NY
500 PM EST THU FEB 11 2016

NOTE: "FAIR" INDICATES FEW OR NO CLOUDS BELOW 12,000 FEET WITH NO
SIGNIFICANT WEATHER AND/OR NO OBSTRUCTIONS TO VISIBILITY.

NYZ032-033-038>043-046>054-057>066-NYZ062>081-112300-
EAST


CITY           SKY/WX    TMP DP  RH WIND       PRES   REMARKS
ALBANY         FLURRIES  15  -1  49 W22G31    29.97R WCI  -3
GLENS FALLS    CLOUDY    14  -5  42 W9G18     29.92R WCI   2
POUGHKEEPSIE   MOCLDY    21  -5  31 W23G32    29.98R WCI   5
NEWBURGH       PTCLDY    19   0  42 NW23G37   29.95R WCI   2
MONTGOMERY     MOCLDY    19  -1  41 NW15G24   29.97R WCI   5
WHITE PLAINS   PTCLDY    20  -2  38 W23G38    29.94R WCI   3
ISLIP          CLOUDY    23   1  38 W24G32    29.95R WCI   7
NEW YORK CITY  MOCLDY    25   1  35 NW22G32   29.99R WCI  10
CENTRAL PARK   PTCLDY    23  -3  32 MISG      30.00R
$$

NYZ005>009-017-018-044>046-055-056-112300-
CENTRAL


CITY           SKY/WX    TMP DP  RH WIND       PRES   REMARKS
FULTON         LGT SNOW  14   5  67 W12G22    30.04R WCI   0
SYRACUSE       SNOW      10   8  92 W16       30.04R VSB 1/2 WCI  -7
ROME           CLOUDY     7   1  76 W17       30.03R BLWGSNOWWCI -12
ELMIRA         CLEAR     14  -2  49 NW12G26   30.04R WCI   0
BINGHAMTON     CLOUDY     9   1  70 NW13G21   29.93R WCI  -7
MONTICELLO     MOCLDY    12   0  57 NW22      29.91R WCI  -7
$$

NYZ026>034-041>043-112300-
NORTH


CITY           SKY/WX    TMP DP  RH WIND       PRES   REMARKS
WATERTOWN      CLOUDY     6  -6  57 NW10      30.06R WCI  -9
FORT DRUM      NOT AVBL
MASSENA        MOCLDY     1 -10  60 W10       30.04R WCI -15
SARANAC LAKE   CLOUDY    -2 -10  69 W8G17     29.80R HAZE    WCI -17
PLATTSBURGH    CLOUDY     7  -9  48 W12G24    29.94R WCI  -8
$$

NYZ001>004-010>016-019>021-112300-
WEST


CITY           SKY/WX    TMP DP  RH WIND       PRES   REMARKS
NIAGARA FALLS  MOCLDY    16   1  51 NW18      30.13R WCI   0
BUFFALO        MOCLDY    14   0  53 NW17G29   30.12R WCI  -3
DUNKIRK        CLOUDY    16   4  59 W15G25    30.16R WCI   1
JAMESTOWN      CLOUDY    10   7  85 NW13      30.04R VSB 1/4 WCI  -5
WELLSVILLE     LGT SNOW  10   0  63 NW22G32   29.97R WCI -10
ROCHESTER      FLURRIES  13   4  67 W15       30.09R WCI  -3
PENN YAN       CLOUDY    13   1  59 W12G23    30.04R WCI  -1
$$

             KEY
       WCI = WIND CHILL INDEX
       VSB = VISIBILITY
       HX  = HEAT INDEX
$$



USA.gov is the U.S. government's official web portal to all federal, state and local government web resources and services.